| time (UTC) | temp F | wind direction | speed MPH | gust MPH | rain 1hr in | rain 24hr in | rain mn in | humidity % | barometer mb |
| 20260505152558 | 66 | 139 | 1.0 | 2.0 | 0.00 | 0.00 | 0.00 | 53 | 1006.9 |
| 20260505151158 | 66 | 94 | 1.0 | 3.0 | 0.00 | 0.00 | 0.00 | 52 | 1006.9 |
| 20260505140159 | 63 | 236 | 0.0 | 1.0 | 0.00 | 0.00 | 0.00 | 52 | 1006.2 |
| 20260505123759 | 62 | 169 | 0.0 | 3.0 | 0.00 | 0.00 | 0.00 | 49 | 1005.4 |
| 20260505122359 | 63 | 146 | 1.0 | 4.0 | 0.00 | 0.00 | 0.00 | 47 | 1005.2 |
| 20260505120959 | 65 | 169 | 1.0 | 3.0 | 0.00 | 0.00 | 0.00 | 43 | 1005.0 |
| 20260505115559 | 67 | 333 | 5.0 | 9.0 | 0.00 | 0.00 | 0.00 | 40 | 1004.7 |
| 20260505114159 | 68 | 349 | 8.0 | 12.0 | 0.00 | 0.00 | 0.00 | 39 | 1004.6 |
| 20260505112759 | 68 | 346 | 10.0 | 15.0 | 0.00 | 0.00 | 0.00 | 40 | 1004.6 |
| 20260505111400 | 68 | 353 | 11.0 | 17.0 | 0.00 | 0.00 | 0.00 | 39 | 1004.5 |
| 20260505101800 | 69 | 356 | 11.0 | 18.0 | 0.00 | 0.00 | 0.00 | 38 | 1004.0 |
| 20260505100400 | 70 | 350 | 12.0 | 16.0 | 0.00 | 0.00 | 0.00 | 38 | 1003.9 |
| 20260505095000 | 70 | 333 | 12.0 | 18.0 | 0.00 | 0.00 | 0.00 | 38 | 1003.8 |
| 20260505093600 | 71 | 342 | 13.0 | 19.0 | 0.00 | 0.00 | 0.00 | 37 | 1003.7 |
| 20260505092200 | 71 | 332 | 13.0 | 20.0 | 0.00 | 0.00 | 0.00 | 37 | 1003.7 |
| 20260505090800 | 71 | 336 | 13.0 | 21.0 | 0.00 | 0.00 | 0.00 | 37 | 1003.7 |
| 20260505085400 | 70 | 342 | 13.0 | 20.0 | 0.00 | 0.00 | 0.00 | 37 | 1003.7 |
| 20260505084000 | 70 | 340 | 12.0 | 20.0 | 0.00 | 0.00 | 0.00 | 37 | 1003.6 |
| 20260505082600 | 70 | 357 | 12.0 | 18.0 | 0.00 | 0.00 | 0.00 | 38 | 1003.7 |
| 20260505081200 | 71 | 321 | 13.0 | 20.0 | 0.00 | 0.00 | 0.00 | 38 | 1003.7 |
| 20260505075800 | 70 | 342 | 13.0 | 20.0 | 0.00 | 0.00 | 0.00 | 38 | 1003.6 |
| 20260505074401 | 69 | 334 | 12.0 | 19.0 | 0.00 | 0.00 | 0.00 | 39 | 1003.6 |
| 20260505073001 | 70 | 320 | 11.0 | 17.0 | 0.00 | 0.00 | 0.00 | 38 | 1003.4 |
| 20260505071601 | 70 | 348 | 14.0 | 21.0 | 0.00 | 0.00 | 0.00 | 38 | 1003.4 |
| 20260505070201 | 71 | 359 | 15.0 | 19.0 | 0.00 | 0.00 | 0.00 | 37 | 1003.3 |
| 20260505064801 | 70 | 49 | 16.0 | 21.0 | 0.00 | 0.00 | 0.00 | 38 | 1003.2 |
| 20260505063401 | 71 | 3 | 15.0 | 22.0 | 0.00 | 0.00 | 0.00 | 37 | 1003.1 |
| 20260505062001 | 71 | 0 | 14.0 | 21.0 | 0.00 | 0.00 | 0.00 | 36 | 1003.2 |
| 20260505060601 | 71 | 331 | 13.0 | 18.0 | 0.00 | 0.00 | 0.00 | 35 | 1003.1 |
| 20260505055201 | 71 | 17 | 12.0 | 16.0 | 0.00 | 0.00 | 0.00 | 35 | 1003.2 |
| 20260505053801 | 72 | 330 | 13.0 | 23.0 | 0.00 | 0.00 | 0.00 | 34 | 1003.2 |
| 20260505052401 | 71 | 349 | 12.0 | 18.0 | 0.00 | 0.00 | 0.00 | 34 | 1003.2 |
| 20260505051001 | 72 | 319 | 13.0 | 19.0 | 0.00 | 0.00 | 0.00 | 33 | 1003.1 |
| 20260505041402 | 72 | 333 | 11.0 | 14.0 | 0.00 | 0.00 | 0.00 | 31 | 1002.8 |
| 20260505040002 | 73 | 328 | 11.0 | 16.0 | 0.00 | 0.00 | 0.00 | 30 | 1002.6 |
| 20260505034602 | 72 | 341 | 10.0 | 15.0 | 0.00 | 0.00 | 0.00 | 31 | 1002.5 |
| 20260505033202 | 73 | 344 | 10.0 | 18.0 | 0.00 | 0.00 | 0.00 | 31 | 1002.4 |
| 20260505031802 | 73 | 351 | 9.0 | 12.0 | 0.00 | 0.00 | 0.00 | 31 | 1002.3 |
| 20260505030402 | 74 | 349 | 9.0 | 16.0 | 0.00 | 0.00 | 0.00 | 30 | 1002.2 |
| 20260505025002 | 75 | 355 | 11.0 | 14.0 | 0.00 | 0.00 | 0.00 | 29 | 1001.9 |
| 20260505023602 | 77 | 1 | 12.0 | 20.0 | 0.00 | 0.00 | 0.00 | 27 | 1001.9 |
| 20260505022202 | 78 | 344 | 15.0 | 23.0 | 0.00 | 0.00 | 0.00 | 25 | 1002.0 |
| 20260505020802 | 79 | 337 | 16.0 | 24.0 | 0.00 | 0.00 | 0.00 | 25 | 1001.9 |
| 20260505015402 | 80 | 347 | 12.0 | 23.0 | 0.00 | 0.00 | 0.00 | 24 | 1001.9 |
| 20260505014002 | 80 | 351 | 14.0 | 22.0 | 0.00 | 0.00 | 0.00 | 25 | 1001.8 |
| 20260505012602 | 80 | 327 | 14.0 | 21.0 | 0.00 | 0.00 | 0.00 | 24 | 1001.9 |
| 20260505011202 | 81 | 347 | 12.0 | 21.0 | 0.00 | 0.00 | 0.00 | 25 | 1002.0 |
| 20260505005802 | 80 | 349 | 4.0 | 11.0 | 0.00 | 0.00 | 0.00 | 27 | 1001.9 |
| 20260505004403 | 82 | 288 | 1.0 | 3.0 | 0.00 | 0.00 | 0.00 | 27 | 1001.8 |
| 20260505003003 | 84 | 206 | 1.0 | 0.0 | 0.00 | 0.00 | 0.00 | 26 | 1001.7 |
| 20260505001603 | 84 | 226 | 0.0 | 2.0 | 0.00 | 0.00 | 0.00 | 25 | 1001.8 |
| 20260505000204 | 83 | 77 | 1.0 | 1.0 | 0.00 | 0.00 | 0.00 | 25 | 1001.8 |
| 20260504234803 | 84 | 133 | 2.0 | 5.0 | 0.00 | 0.00 | 0.00 | 28 | 1001.7 |
| 20260504233403 | 84 | 188 | 4.0 | 6.0 | 0.00 | 0.00 | 0.00 | 27 | 1001.8 |
| 20260504232003 | 83 | 131 | 3.0 | 6.0 | 0.00 | 0.00 | 0.00 | 28 | 1001.9 |
| 20260504230603 | 83 | 200 | 3.0 | 8.0 | 0.00 | 0.00 | 0.00 | 27 | 1002.0 |
| 20260504225203 | 82 | 102 | 3.0 | 8.0 | 0.00 | 0.00 | 0.00 | 28 | 1002.2 |
| 20260504223803 | 83 | 140 | 4.0 | 7.0 | 0.00 | 0.00 | 0.00 | 28 | 1002.3 |
| 20260504222403 | 83 | 136 | 2.0 | 6.0 | 0.00 | 0.00 | 0.00 | 30 | 1002.5 |
| 20260504221003 | 82 | 159 | 5.0 | 10.0 | 0.00 | 0.00 | 0.00 | 30 | 1002.7 |
| 20260504215603 | 82 | 183 | 4.0 | 9.0 | 0.00 | 0.00 | 0.00 | 28 | 1002.9 |
| 20260504214203 | 81 | 105 | 4.0 | 9.0 | 0.00 | 0.00 | 0.00 | 30 | 1003.0 |
| 20260504212803 | 81 | 173 | 4.0 | 8.0 | 0.00 | 0.00 | 0.00 | 29 | 1003.2 |
| 20260504211403 | 81 | 115 | 4.0 | 6.0 | 0.00 | 0.00 | 0.00 | 29 | 1003.4 |
| 20260504210004 | 81 | 99 | 2.0 | 7.0 | 0.00 | 0.00 | 0.00 | 27 | 1003.6 |
| 20260504204604 | 80 | 86 | 3.0 | 6.0 | 0.00 | 0.00 | 0.00 | 29 | 1003.8 |
| 20260504203204 | 80 | 148 | 3.0 | 10.0 | 0.00 | 0.00 | 0.00 | 27 | 1003.9 |
| 20260504201804 | 80 | 91 | 3.0 | 7.0 | 0.00 | 0.00 | 0.00 | 27 | 1004.0 |
| 20260504200404 | 79 | 126 | 4.0 | 9.0 | 0.00 | 0.00 | 0.00 | 29 | 1004.2 |
| 20260504195004 | 79 | 169 | 4.0 | 8.0 | 0.00 | 0.00 | 0.00 | 29 | 1004.3 |
| 20260504193604 | 79 | 131 | 3.0 | 5.0 | 0.00 | 0.00 | 0.00 | 30 | 1004.4 |
| 20260504192204 | 78 | 110 | 4.0 | 6.0 | 0.00 | 0.00 | 0.00 | 29 | 1004.6 |
| 20260504190804 | 78 | 127 | 4.0 | 8.0 | 0.00 | 0.00 | 0.00 | 34 | 1004.7 |
| 20260504185404 | 77 | 111 | 5.0 | 10.0 | 0.00 | 0.00 | 0.00 | 35 | 1004.9 |
| 20260504184004 | 77 | 148 | 4.0 | 8.0 | 0.00 | 0.00 | 0.00 | 35 | 1005.0 |
| 20260504182604 | 76 | 232 | 3.0 | 7.0 | 0.00 | 0.00 | 0.00 | 38 | 1005.0 |
| 20260504181204 | 76 | 124 | 2.0 | 5.0 | 0.00 | 0.00 | 0.00 | 39 | 1005.0 |
| 20260504175804 | 75 | 128 | 1.0 | 3.0 | 0.00 | 0.00 | 0.00 | 44 | 1005.0 |
| 20260504174404 | 73 | 127 | 1.0 | 3.0 | 0.00 | 0.00 | 0.00 | 41 | 1005.1 |
| 20260504173004 | 73 | 247 | 2.0 | 4.0 | 0.00 | 0.00 | 0.00 | 42 | 1005.1 |
| 20260504171605 | 71 | 149 | 2.0 | 4.0 | 0.00 | 0.00 | 0.00 | 44 | 1005.2 |
| 20260504170205 | 70 | 133 | 2.0 | 3.0 | 0.00 | 0.00 | 0.00 | 41 | 1005.2 |